DLH438 EDDF-KDFW

Flight info

Callsign DLH438
Flight time N/A
Altitude 36000
Route OBOKA3M/25C OBOKA Z28 DIBIR DCT BUDIP DCT RAVLO Y70 OTBED L60 PENIL M144 BAGSO DCT DEVOL DCT DOGAL/M080F380 NATC NEEKO/N0463F380 N624C ANATI/N0468F400 DCT POLTY DCT ROSVO DCT ECK DCT GIJ DCT RBS DCT KK45I DCT FSM DCT KOMMA DCT RRNET SEEVR4
Aircraft A343/H-SDE2E3FGHIJ4J5M1RWXY/LB1D1

Departure

Time N/A
Airport Frankfurt Main Airport (EDDF)

Arrival

Time 2026-05-04 19:40
Airport Dallas Fort Worth International Airport (KDFW)
Time Latitude Longitude Altitude Speed Heading
2026-05-04 19:11 34.45974 -95.24477 29042 ft 470 kts 215°
2026-05-04 19:11 34.42963 -95.26055 28759 ft 468 kts 214°
2026-05-04 19:11 34.40207 -95.28004 28495 ft 451 kts 225°
2026-05-04 19:12 34.37766 -95.30337 28222 ft 443 kts 229°
2026-05-04 19:12 34.33268 -95.35334 27642 ft 436 kts 233°
2026-05-04 19:12 34.31096 -95.37879 27383 ft 434 kts 233°
2026-05-04 19:13 34.28950 -95.40429 27130 ft 432 kts 233°
2026-05-04 19:13 34.26821 -95.42977 26869 ft 430 kts 233°
2026-05-04 19:13 34.24701 -95.45523 26611 ft 428 kts 233°
2026-05-04 19:13 34.22606 -95.48069 26376 ft 426 kts 234°
2026-05-04 19:14 34.20462 -95.50556 26151 ft 429 kts 230°
2026-05-04 19:14 34.18192 -95.52904 25927 ft 430 kts 228°
2026-05-04 19:14 34.15896 -95.55207 25701 ft 429 kts 228°
2026-05-04 19:14 34.13596 -95.57509 25443 ft 429 kts 228°
2026-05-04 19:15 34.11301 -95.59803 25190 ft 428 kts 227°
2026-05-04 19:15 34.09010 -95.62091 24937 ft 427 kts 227°
2026-05-04 19:15 34.06726 -95.64372 24703 ft 426 kts 227°
2026-05-04 19:15 34.04437 -95.66652 24564 ft 426 kts 227°
2026-05-04 19:16 34.02154 -95.68919 24428 ft 424 kts 227°
2026-05-04 19:16 33.99912 -95.71136 24294 ft 410 kts 227°
2026-05-04 19:16 33.97741 -95.73276 24179 ft 399 kts 227°
2026-05-04 19:16 33.95619 -95.75372 24000 ft 391 kts 227°
2026-05-04 19:17 33.93517 -95.77465 23778 ft 394 kts 227°
2026-05-04 19:17 33.91432 -95.79549 23611 ft 392 kts 227°
2026-05-04 19:17 33.89343 -95.81634 23363 ft 391 kts 227°
2026-05-04 19:17 33.87247 -95.83731 23146 ft 391 kts 227°
2026-05-04 19:18 33.85167 -95.85805 22732 ft 385 kts 227°
2026-05-04 19:18 33.83116 -95.87850 22255 ft 381 kts 227°
2026-05-04 19:18 33.81082 -95.89875 21746 ft 378 kts 227°
2026-05-04 19:18 33.79058 -95.91874 21298 ft 375 kts 226°
2026-05-04 19:19 33.77049 -95.93855 20825 ft 372 kts 226°
2026-05-04 19:19 33.75051 -95.95824 20356 ft 370 kts 226°
2026-05-04 19:19 33.73064 -95.97781 19908 ft 368 kts 226°
2026-05-04 19:19 33.71087 -95.99727 19441 ft 367 kts 226°
2026-05-04 19:20 33.69114 -96.01669 18971 ft 366 kts 225°
2026-05-04 19:20 33.67151 -96.03600 18526 ft 364 kts 225°
2026-05-04 19:20 33.65196 -96.05521 18028 ft 362 kts 225°
2026-05-04 19:20 33.63254 -96.07427 17559 ft 359 kts 225°
2026-05-04 19:21 33.61324 -96.09321 17090 ft 358 kts 225°
2026-05-04 19:21 33.59404 -96.11205 16605 ft 355 kts 225°
2026-05-04 19:21 33.57498 -96.13074 16159 ft 353 kts 225°
2026-05-04 19:21 33.55599 -96.14935 15711 ft 352 kts 224°
2026-05-04 19:22 33.53708 -96.16787 15229 ft 351 kts 224°
2026-05-04 19:22 33.51823 -96.18633 14774 ft 350 kts 224°
2026-05-04 19:22 33.49946 -96.20468 14439 ft 344 kts 224°
2026-05-04 19:22 33.48122 -96.22247 14314 ft 332 kts 224°
2026-05-04 19:23 33.46359 -96.23966 14128 ft 323 kts 225°
2026-05-04 19:23 33.44658 -96.25719 13740 ft 321 kts 229°
2026-05-04 19:23 33.43131 -96.27646 13300 ft 318 kts 233°
2026-05-04 19:23 33.41674 -96.29627 12894 ft 316 kts 233°
2026-05-04 19:24 33.40243 -96.31600 12551 ft 312 kts 233°
2026-05-04 19:24 33.38829 -96.33552 12219 ft 308 kts 233°
2026-05-04 19:24 33.37444 -96.35461 12052 ft 299 kts 233°
2026-05-04 19:24 33.36102 -96.37312 11912 ft 290 kts 233°
2026-05-04 19:25 33.34812 -96.39092 11684 ft 284 kts 233°
2026-05-04 19:25 33.33571 -96.40901 11421 ft 279 kts 237°
2026-05-04 19:25 33.32545 -96.42847 11091 ft 275 kts 245°
2026-05-04 19:25 33.31796 -96.44931 10830 ft 271 kts 252°
2026-05-04 19:26 33.31183 -96.47048 10554 ft 268 kts 253°
2026-05-04 19:26 33.30599 -96.49159 10250 ft 267 kts 252°
2026-05-04 19:26 33.30017 -96.51261 9944 ft 266 kts 252°
2026-05-04 19:26 33.29436 -96.53350 9601 ft 264 kts 252°
2026-05-04 19:27 33.28907 -96.55434 9369 ft 259 kts 256°
2026-05-04 19:27 33.28593 -96.57520 9178 ft 253 kts 263°
2026-05-04 19:27 33.28455 -96.59606 8895 ft 251 kts 265°
2026-05-04 19:27 33.28360 -96.61687 8579 ft 251 kts 265°
2026-05-04 19:28 33.28272 -96.63756 8306 ft 248 kts 265°
2026-05-04 19:28 33.28183 -96.65810 8117 ft 248 kts 265°
2026-05-04 19:28 33.28091 -96.67862 7885 ft 245 kts 265°
2026-05-04 19:28 33.27998 -96.69902 7657 ft 246 kts 265°
2026-05-04 19:29 33.27905 -96.71929 7411 ft 244 kts 265°
2026-05-04 19:29 33.27811 -96.73951 7173 ft 242 kts 264°
2026-05-04 19:29 33.27718 -96.75961 6926 ft 243 kts 264°
2026-05-04 19:29 33.27623 -96.77968 6693 ft 241 kts 264°
2026-05-04 19:30 33.27561 -96.79292 6539 ft 242 kts 264°
2026-05-04 19:30 33.27466 -96.81309 6326 ft 241 kts 264°
2026-05-04 19:30 33.27373 -96.83282 6127 ft 235 kts 264°
2026-05-04 19:30 33.27288 -96.85221 6009 ft 237 kts 265°
2026-05-04 19:31 33.27213 -96.87198 5983 ft 236 kts 265°
2026-05-04 19:31 33.27142 -96.89136 5988 ft 232 kts 265°
2026-05-04 19:31 33.27070 -96.91057 5985 ft 232 kts 265°
2026-05-04 19:31 33.26997 -96.92989 5991 ft 233 kts 265°
2026-05-04 19:32 33.26923 -96.94904 5986 ft 230 kts 265°
2026-05-04 19:32 33.26849 -96.96817 5985 ft 231 kts 265°
2026-05-04 19:32 33.26737 -96.98722 5985 ft 230 kts 258°
2026-05-04 19:32 33.26055 -97.00437 5998 ft 231 kts 233°
2026-05-04 19:33 33.24968 -97.01851 5983 ft 233 kts 222°
2026-05-04 19:33 33.23479 -97.02647 5990 ft 239 kts 197°
2026-05-04 19:33 33.21824 -97.02888 5932 ft 239 kts 188°
2026-05-04 19:33 33.20164 -97.02919 5698 ft 238 kts 184°
2026-05-04 19:34 33.18511 -97.02853 5447 ft 237 kts 183°
2026-05-04 19:34 33.16869 -97.02740 5196 ft 235 kts 182°
2026-05-04 19:34 33.15247 -97.02609 5008 ft 230 kts 184°
2026-05-04 19:34 33.13673 -97.02521 4889 ft 224 kts 184°
2026-05-04 19:35 33.12122 -97.02489 4621 ft 224 kts 186°
2026-05-04 19:35 33.10558 -97.02509 4271 ft 224 kts 186°
2026-05-04 19:35 33.09032 -97.02521 3937 ft 212 kts 185°
2026-05-04 19:35 33.07630 -97.02524 3672 ft 197 kts 184°
2026-05-04 19:36 33.06287 -97.02531 3412 ft 183 kts 184°
2026-05-04 19:36 33.05081 -97.02537 3227 ft 168 kts 182°
2026-05-04 19:36 33.03933 -97.02543 2994 ft 158 kts 182°
2026-05-04 19:36 33.02863 -97.02548 2782 ft 149 kts 181°
2026-05-04 19:37 33.01885 -97.02552 2588 ft 136 kts 181°
2026-05-04 19:37 33.00995 -97.02556 2445 ft 121 kts 181°
2026-05-04 19:37 33.00167 -97.02557 2294 ft 119 kts 181°
2026-05-04 19:37 32.99340 -97.02562 2134 ft 119 kts 181°
2026-05-04 19:38 32.98500 -97.02573 1980 ft 121 kts 180°
2026-05-04 19:38 32.97663 -97.02576 1812 ft 120 kts 180°
2026-05-04 19:38 32.96830 -97.02545 1663 ft 119 kts 179°
2026-05-04 19:38 32.96003 -97.02545 1478 ft 119 kts 185°
2026-05-04 19:39 32.95181 -97.02584 1316 ft 118 kts 183°
2026-05-04 19:39 32.94356 -97.02580 1178 ft 120 kts 182°
2026-05-04 19:39 32.93519 -97.02585 1005 ft 118 kts 184°
2026-05-04 19:39 32.92710 -97.02592 833 ft 115 kts 184°
2026-05-04 19:40 32.91906 -97.02591 677 ft 115 kts 183°
2026-05-04 19:40 32.91112 -97.02597 582 ft 109 kts 184°
2026-05-04 19:40 32.90515 -97.02603 581 ft 60 kts 180°
2026-05-04 19:40 32.90202 -97.02605 580 ft 38 kts 181°
2026-05-04 19:41 32.89971 -97.02656 581 ft 31 kts 203°
2026-05-04 19:41 32.89787 -97.02776 576 ft 28 kts 208°
2026-05-04 19:41 32.89609 -97.02803 579 ft 25 kts 180°
2026-05-04 19:41 32.89432 -97.02805 578 ft 25 kts 180°
2026-05-04 19:42 32.89261 -97.02806 581 ft 23 kts 180°
2026-05-04 19:42 32.89106 -97.02807 580 ft 22 kts 180°
2026-05-04 19:42 32.88949 -97.02808 581 ft 22 kts 179°
2026-05-04 19:42 32.88798 -97.02807 582 ft 21 kts 180°
2026-05-04 19:43 32.88645 -97.02810 580 ft 23 kts 180°
2026-05-04 19:43 32.88485 -97.02810 579 ft 23 kts 180°
2026-05-04 19:43 32.88326 -97.02811 579 ft 23 kts 180°
2026-05-04 19:43 32.88160 -97.02811 577 ft 24 kts 180°
2026-05-04 19:44 32.87996 -97.02813 579 ft 23 kts 180°
2026-05-04 19:44 32.87843 -97.02818 580 ft 23 kts 184°
2026-05-04 19:44 32.87686 -97.02835 583 ft 23 kts 185°
2026-05-04 19:44 32.87532 -97.02852 580 ft 22 kts 184°
2026-05-04 19:45 32.87377 -97.02869 576 ft 23 kts 185°
2026-05-04 19:45 32.87220 -97.02887 577 ft 22 kts 190°
2026-05-04 19:45 32.87163 -97.03015 573 ft 19 kts 269°
2026-05-04 19:45 32.87162 -97.03181 571 ft 21 kts 272°
2026-05-04 19:46 32.87209 -97.03313 578 ft 17 kts 333°
2026-05-04 19:46 32.87339 -97.03329 576 ft 20 kts 355°
2026-05-04 19:46 32.87485 -97.03343 574 ft 22 kts 356°
2026-05-04 19:46 32.87637 -97.03356 577 ft 22 kts 355°
2026-05-04 19:47 32.87791 -97.03371 580 ft 21 kts 355°
2026-05-04 19:47 32.87891 -97.03358 581 ft 11 kts 45°
2026-05-04 19:47 32.87932 -97.03293 585 ft 9 kts 23°
2026-05-04 19:47 32.88007 -97.03291 583 ft 13 kts 359°
2026-05-04 19:48 32.88124 -97.03290 581 ft 20 kts
2026-05-04 19:48 32.88278 -97.03288 582 ft 23 kts
2026-05-04 19:48 32.88442 -97.03288 580 ft 23 kts 356°
2026-05-04 19:48 32.88584 -97.03326 585 ft 13 kts 345°
2026-05-04 19:49 32.88600 -97.03356 589 ft 5 kts 276°
2026-05-04 19:49 32.88602 -97.03433 588 ft 13 kts 270°
2026-05-04 19:49 32.88602 -97.03578 588 ft 21 kts 269°
2026-05-04 19:49 32.88603 -97.03776 595 ft 25 kts 270°
2026-05-04 19:50 32.88604 -97.03983 615 ft 27 kts 270°
2026-05-04 19:50 32.88605 -97.04236 615 ft 32 kts 270°
2026-05-04 19:50 32.88607 -97.04516 594 ft 33 kts 269°
2026-05-04 19:50 32.88606 -97.04725 592 ft 23 kts 270°
2026-05-04 19:51 32.88612 -97.04876 593 ft 13 kts 290°
2026-05-04 19:51 32.88685 -97.04896 592 ft 13 kts
2026-05-04 19:51 32.88806 -97.04891 592 ft 21 kts
2026-05-04 19:51 32.88977 -97.04891 594 ft 28 kts
2026-05-04 19:52 32.89189 -97.04890 596 ft 30 kts 360°
2026-05-04 19:52 32.89353 -97.04889 601 ft 17 kts
2026-05-04 19:52 32.89401 -97.04827 600 ft 12 kts 89°
2026-05-04 19:52 32.89402 -97.04714 600 ft 14 kts 89°
2026-05-04 19:53 32.89422 -97.04610 602 ft 13 kts 72°
2026-05-04 19:53 32.89427 -97.04492 602 ft 15 kts 91°
2026-05-04 19:53 32.89447 -97.04393 602 ft 9 kts 46°
2026-05-04 19:53 32.89500 -97.04378 602 ft 7 kts
2026-05-04 19:54 32.89512 -97.04377 602 ft 0 kts